| time (UTC) | temp F | wind direction | speed knots | gust knots | rain 1hr in | rain 24hr in | rain mn in | humidity % | barometer mb |
| 20260502233738 | 57 | 4 | 3.5 | 5.2 | 0.00 | 0.00 | 0.00 | 40 | 1014.2 |
| 20260502233235 | 57 | 275 | 7.8 | 8.7 | 0.00 | 0.00 | 0.00 | 39 | 1014.1 |
| 20260502232730 | 58 | 357 | 0.9 | 7.0 | 0.00 | 0.00 | 0.00 | 39 | 1014.1 |
| 20260502232228 | 58 | 308 | 2.6 | 5.2 | 0.00 | 0.00 | 0.00 | 40 | 1014.1 |
| 20260502231725 | 58 | 355 | 0.9 | 4.3 | 0.00 | 0.00 | 0.00 | 40 | 1013.9 |
| 20260502231222 | 57 | 45 | 4.3 | 5.2 | 0.00 | 0.00 | 0.00 | 39 | 1013.6 |
| 20260502230721 | 59 | 48 | 5.2 | 8.7 | 0.00 | 0.00 | 0.00 | 38 | 1013.7 |
| 20260502230219 | 58 | 59 | 6.1 | 6.1 | 0.00 | 0.00 | 0.00 | 38 | 1013.7 |
| 20260502225714 | 57 | 322 | 8.7 | 9.6 | 0.00 | 0.00 | 0.00 | 39 | 1013.8 |
| 20260502225212 | 57 | 314 | 4.3 | 9.6 | 0.00 | 0.00 | 0.00 | 39 | 1013.9 |
| 20260502224708 | 57 | 305 | 7.8 | 10.4 | 0.00 | 0.00 | 0.00 | 39 | 1013.7 |
| 20260502224205 | 57 | 350 | 4.3 | 7.8 | 0.00 | 0.00 | 0.00 | 40 | 1013.7 |
| 20260502223702 | 58 | 321 | 4.3 | 10.4 | 0.00 | 0.00 | 0.00 | 40 | 1013.8 |
| 20260502223201 | 59 | 269 | 5.2 | 8.7 | 0.00 | 0.00 | 0.00 | 39 | 1013.9 |
| 20260502222658 | 58 | 265 | 4.3 | 5.2 | 0.00 | 0.00 | 0.00 | 41 | 1013.4 |
| 20260502222154 | 58 | 274 | 5.2 | 7.8 | 0.00 | 0.00 | 0.00 | 40 | 1013.7 |
| 20260502221650 | 58 | 30 | 0.9 | 8.7 | 0.00 | 0.00 | 0.00 | 39 | 1013.7 |
| 20260502221147 | 58 | 339 | 4.3 | 5.2 | 0.00 | 0.00 | 0.00 | 39 | 1013.3 |
| 20260502220643 | 58 | 6 | 5.2 | 11.3 | 0.00 | 0.00 | 0.00 | 39 | 1013.3 |
| 20260502220139 | 58 | 201 | 2.6 | 11.3 | 0.00 | 0.00 | 0.00 | 40 | 1013.4 |
| 20260502215637 | 58 | 323 | 0.9 | 12.2 | 0.00 | 0.00 | 0.00 | 39 | 1013.4 |
| 20260502215133 | 59 | 17 | 7.0 | 13.0 | 0.00 | 0.00 | 0.00 | 38 | 1013.1 |
| 20260502214631 | 59 | 324 | 2.6 | 10.4 | 0.00 | 0.00 | 0.00 | 37 | 1013.1 |
| 20260502214128 | 59 | 329 | 5.2 | 7.0 | 0.00 | 0.00 | 0.00 | 38 | 1013.2 |
| 20260502213625 | 60 | 344 | 6.1 | 11.3 | 0.00 | 0.00 | 0.00 | 37 | 1012.9 |
| 20260502213122 | 60 | 191 | 0.9 | 9.6 | 0.00 | 0.00 | 0.00 | 37 | 1012.5 |
| 20260502212621 | 60 | 347 | 2.6 | 10.4 | 0.00 | 0.00 | 0.00 | 37 | 1012.6 |
| 20260502212119 | 60 | 271 | 10.4 | 10.4 | 0.00 | 0.00 | 0.00 | 37 | 1012.5 |
| 20260502211614 | 60 | 304 | 6.1 | 10.4 | 0.00 | 0.00 | 0.00 | 37 | 1012.4 |
| 20260502211112 | 61 | 267 | 2.6 | 6.1 | 0.00 | 0.00 | 0.00 | 37 | 1012.2 |
| 20260502210609 | 61 | 299 | 4.3 | 8.7 | 0.00 | 0.00 | 0.00 | 36 | 1012.2 |
| 20260502210106 | 64 | 262 | 5.2 | 10.4 | 0.00 | 0.00 | 0.00 | 35 | 1012.0 |
| 20260502205602 | 63 | 76 | 3.5 | 4.3 | 0.00 | 0.00 | 0.00 | 35 | 1012.0 |
| 20260502205059 | 62 | 238 | 7.0 | 11.3 | 0.00 | 0.00 | 0.00 | 34 | 1012.2 |
| 20260502204556 | 62 | 347 | 6.1 | 9.6 | 0.00 | 0.00 | 0.00 | 35 | 1012.2 |
| 20260502204054 | 62 | 102 | 0.9 | 6.1 | 0.00 | 0.00 | 0.00 | 35 | 1012.0 |
| 20260502203550 | 63 | 264 | 6.1 | 8.7 | 0.00 | 0.00 | 0.00 | 34 | 1012.0 |
| 20260502203048 | 64 | 241 | 6.1 | 12.2 | 0.00 | 0.00 | 0.00 | 33 | 1012.0 |
| 20260502202543 | 64 | 3 | 5.2 | 12.2 | 0.00 | 0.00 | 0.00 | 34 | 1012.1 |
| 20260502202042 | 62 | 28 | 3.5 | 6.1 | 0.00 | 0.00 | 0.00 | 36 | 1012.1 |
| 20260502201538 | 62 | 320 | 5.2 | 7.8 | 0.00 | 0.00 | 0.00 | 33 | 1012.2 |
| 20260502201034 | 63 | 265 | 6.1 | 10.4 | 0.00 | 0.00 | 0.00 | 33 | 1012.1 |
| 20260502200530 | 62 | 279 | 4.3 | 9.6 | 0.00 | 0.00 | 0.00 | 35 | 1012.0 |
| 20260502200028 | 62 | 45 | 2.6 | 8.7 | 0.00 | 0.00 | 0.00 | 32 | 1012.2 |
| 20260502195526 | 63 | 357 | 4.3 | 10.4 | 0.00 | 0.00 | 0.00 | 33 | 1012.5 |
| 20260502195021 | 63 | 236 | 0.9 | 4.3 | 0.00 | 0.00 | 0.00 | 33 | 1012.2 |
| 20260502194518 | 63 | 285 | 2.6 | 9.6 | 0.00 | 0.00 | 0.00 | 33 | 1012.5 |
| 20260502194014 | 64 | 264 | 6.1 | 8.7 | 0.00 | 0.00 | 0.00 | 35 | 1012.5 |
| 20260502193512 | 63 | 315 | 2.6 | 7.0 | 0.00 | 0.00 | 0.00 | 36 | 1012.9 |
| 20260502193009 | 64 | 50 | 3.5 | 5.2 | 0.00 | 0.00 | 0.00 | 33 | 1012.9 |
| 20260502192505 | 64 | 231 | 0.9 | 4.3 | 0.00 | 0.00 | 0.00 | 39 | 1013.0 |
| 20260502192002 | 63 | 305 | 1.7 | 6.1 | 0.00 | 0.00 | 0.00 | 33 | 1012.9 |
| 20260502191459 | 62 | 257 | 3.5 | 6.1 | 0.00 | 0.00 | 0.00 | 34 | 1013.0 |
| 20260502190956 | 62 | 301 | 0.0 | 4.3 | 0.00 | 0.00 | 0.00 | 33 | 1012.9 |
| 20260502190454 | 63 | 72 | 2.6 | 7.8 | 0.00 | 0.00 | 0.00 | 35 | 1013.2 |
| 20260502185950 | 62 | 85 | 5.2 | 6.1 | 0.00 | 0.00 | 0.00 | 36 | 1012.7 |
| 20260502185446 | 61 | 33 | 3.5 | 8.7 | 0.00 | 0.00 | 0.00 | 35 | 1013.2 |
| 20260502184943 | 63 | 302 | 7.0 | 8.7 | 0.00 | 0.00 | 0.00 | 34 | 1012.9 |
| 20260502184438 | 64 | 139 | 2.6 | 2.6 | 0.00 | 0.00 | 0.00 | 40 | 1012.9 |
| 20260502183934 | 61 | 292 | 6.1 | 8.7 | 0.00 | 0.00 | 0.00 | 35 | 1013.3 |
| 20260502183431 | 60 | 273 | 4.3 | 7.8 | 0.00 | 0.00 | 0.00 | 36 | 1013.2 |
| 20260502182926 | 61 | 243 | 11.3 | 13.0 | 0.00 | 0.00 | 0.00 | 36 | 1013.3 |
| 20260502182422 | 62 | 264 | 6.1 | 8.7 | 0.00 | 0.00 | 0.00 | 39 | 1013.4 |
| 20260502181918 | 61 | 54 | 5.2 | 9.6 | 0.00 | 0.00 | 0.00 | 39 | 1013.3 |
| 20260502181417 | 60 | 27 | 2.6 | 5.2 | 0.00 | 0.00 | 0.00 | 39 | 1013.6 |
| 20260502180915 | 60 | 83 | 4.3 | 8.7 | 0.00 | 0.00 | 0.00 | 36 | 1013.9 |
| 20260502180412 | 60 | 56 | 0.9 | 7.0 | 0.00 | 0.00 | 0.00 | 37 | 1014.0 |
| 20260502170330 | 58 | 80 | 2.6 | 7.8 | 0.00 | 0.00 | 0.00 | 40 | 1014.9 |
| 20260502164318 | 56 | 316 | 2.6 | 4.3 | 0.00 | 0.00 | 0.00 | 51 | 1015.2 |
| 20260502163814 | 55 | 337 | 2.6 | 5.2 | 0.00 | 0.00 | 0.00 | 45 | 1015.5 |
| 20260502163310 | 56 | 100 | 5.2 | 5.2 | 0.00 | 0.00 | 0.00 | 49 | 1015.6 |
| 20260502162808 | 55 | 26 | 2.6 | 4.3 | 0.00 | 0.00 | 0.00 | 46 | 1015.6 |
| 20260502162305 | 54 | 244 | 1.7 | 3.5 | 0.00 | 0.00 | 0.00 | 43 | 1015.5 |
| 20260502161801 | 54 | 355 | 3.5 | 5.2 | 0.00 | 0.00 | 0.00 | 44 | 1015.4 |
| 20260502161257 | 54 | 8 | 1.7 | 3.5 | 0.00 | 0.00 | 0.00 | 47 | 1015.7 |
| 20260502160755 | 55 | 78 | 2.6 | 4.3 | 0.00 | 0.00 | 0.00 | 44 | 1015.7 |
| 20260502160254 | 54 | 34 | 5.2 | 7.8 | 0.00 | 0.00 | 0.00 | 44 | 1015.7 |
| 20260502152223 | 52 | 358 | 2.6 | 6.1 | 0.00 | 0.00 | 0.00 | 47 | 1016.1 |
| 20260502151721 | 52 | 341 | 2.6 | 4.3 | 0.00 | 0.00 | 0.00 | 48 | 1016.2 |
| 20260502151218 | 52 | 298 | 1.7 | 6.1 | 0.00 | 0.00 | 0.00 | 48 | 1016.1 |
| 20260502150715 | 51 | 23 | 1.7 | 4.3 | 0.00 | 0.00 | 0.00 | 48 | 1015.7 |
| 20260502150212 | 51 | 24 | 4.3 | 5.2 | 0.00 | 0.00 | 0.00 | 48 | 1015.7 |
| 20260502130600 | 50 | 32 | 1.7 | 4.3 | 0.00 | 0.00 | 0.00 | 50 | 1015.6 |
| 20260502123544 | 50 | 26 | 1.7 | 2.6 | 0.00 | 0.00 | 0.00 | 55 | 1015.2 |
| 20260502123040 | 50 | 38 | 0.0 | 2.6 | 0.00 | 0.00 | 0.00 | 58 | 1015.0 |
| 20260502122537 | 50 | 76 | 1.7 | 2.6 | 0.00 | 0.00 | 0.00 | 60 | 1014.9 |
| 20260502122034 | 50 | 310 | 0.9 | 4.3 | 0.00 | 0.00 | 0.00 | 62 | 1014.9 |
| 20260502121531 | 50 | 358 | 0.9 | 2.6 | 0.00 | 0.00 | 0.00 | 62 | 1014.9 |
| 20260502121029 | 50 | 58 | 3.5 | 4.3 | 0.00 | 0.00 | 0.00 | 60 | 1015.0 |
| 20260502120525 | 50 | 116 | 1.7 | 2.6 | 0.00 | 0.00 | 0.00 | 63 | 1015.0 |
| 20260502115520 | 50 | 98 | 1.7 | 3.5 | 0.00 | 0.00 | 0.00 | 59 | 1015.3 |
| 20260502115015 | 50 | 31 | 0.0 | 3.5 | 0.00 | 0.00 | 0.00 | 60 | 1015.1 |
| 20260502114512 | 50 | 300 | 2.6 | 3.5 | 0.00 | 0.00 | 0.00 | 58 | 1014.9 |
| 20260502114009 | 50 | 76 | 0.9 | 1.7 | 0.00 | 0.00 | 0.00 | 60 | 1014.9 |
| 20260502113507 | 50 | 223 | 1.7 | 2.6 | 0.00 | 0.00 | 0.00 | 59 | 1014.7 |
| 20260502113005 | 50 | 180 | 0.0 | 3.5 | 0.00 | 0.00 | 0.00 | 59 | 1014.8 |
| 20260502112503 | 50 | 57 | 3.5 | 4.3 | 0.00 | 0.00 | 0.00 | 57 | 1014.7 |
| 20260502112000 | 50 | 19 | 1.7 | 5.2 | 0.00 | 0.00 | 0.00 | 59 | 1014.8 |
| 20260502111457 | 50 | 160 | 0.9 | 2.6 | 0.00 | 0.00 | 0.00 | 57 | 1014.7 |
| 20260502110955 | 50 | 312 | 0.9 | 4.3 | 0.00 | 0.00 | 0.00 | 56 | 1014.4 |
| 20260502110452 | 50 | 78 | 0.0 | 4.3 | 0.00 | 0.00 | 0.00 | 57 | 1014.5 |
| 20260502105949 | 50 | 22 | 0.9 | 4.3 | 0.00 | 0.00 | 0.00 | 57 | 1014.6 |
| 20260502105447 | 50 | 354 | 2.6 | 4.3 | 0.00 | 0.00 | 0.00 | 57 | 1014.7 |
| 20260502104944 | 50 | 55 | 2.6 | 3.5 | 0.00 | 0.00 | 0.00 | 58 | 1014.5 |
| 20260502104441 | 50 | 337 | 4.3 | 5.2 | 0.00 | 0.00 | 0.00 | 57 | 1014.4 |
| 20260502103938 | 50 | 80 | 2.6 | 2.6 | 0.00 | 0.00 | 0.00 | 59 | 1014.4 |
| 20260502103436 | 50 | 194 | 1.7 | 2.6 | 0.00 | 0.00 | 0.00 | 59 | 1014.2 |
| 20260502102933 | 50 | 2 | 1.7 | 6.1 | 0.00 | 0.00 | 0.00 | 59 | 1014.5 |
| 20260502102429 | 50 | 328 | 3.5 | 6.1 | 0.00 | 0.00 | 0.00 | 61 | 1014.1 |
| 20260502101926 | 50 | 54 | 2.6 | 2.6 | 0.00 | 0.00 | 0.00 | 64 | 1014.3 |
| 20260502101425 | 51 | 45 | 3.5 | 3.5 | 0.00 | 0.00 | 0.00 | 64 | 1014.4 |
| 20260502100923 | 51 | 62 | 3.5 | 5.2 | 0.00 | 0.00 | 0.00 | 64 | 1014.5 |
| 20260502100422 | 51 | 92 | 1.7 | 4.3 | 0.00 | 0.00 | 0.00 | 66 | 1014.5 |
| 20260502091356 | 51 | 259 | 1.7 | 5.2 | 0.00 | 0.00 | 0.00 | 69 | 1014.7 |
| 20260502090853 | 51 | 342 | 3.5 | 4.3 | 0.00 | 0.00 | 0.00 | 69 | 1014.6 |
| 20260502090350 | 51 | 62 | 3.5 | 5.2 | 0.00 | 0.00 | 0.00 | 69 | 1014.6 |
| 20260502071245 | 52 | 333 | 4.3 | 7.8 | 0.00 | 0.00 | 0.00 | 68 | 1013.4 |
| 20260502070743 | 52 | 27 | 3.5 | 4.3 | 0.00 | 0.00 | 0.00 | 69 | 1013.7 |
| 20260502070240 | 52 | 46 | 4.3 | 5.2 | 0.00 | 0.00 | 0.00 | 69 | 1013.4 |
| 20260502065739 | 52 | 52 | 5.2 | 5.2 | 0.00 | 0.00 | 0.00 | 70 | 1013.6 |
| 20260502065236 | 52 | 279 | 2.6 | 7.8 | 0.00 | 0.00 | 0.00 | 71 | 1013.6 |
| 20260502064735 | 52 | 150 | 0.0 | 2.6 | 0.00 | 0.00 | 0.00 | 73 | 1013.7 |
| 20260502064232 | 53 | 73 | 4.3 | 6.1 | 0.00 | 0.00 | 0.00 | 72 | 1014.1 |
| 20260502063729 | 52 | 71 | 1.7 | 3.5 | 0.00 | 0.00 | 0.00 | 73 | 1013.8 |
| 20260502063227 | 52 | 58 | 2.6 | 4.3 | 0.00 | 0.00 | 0.00 | 73 | 1014.0 |
| 20260502062724 | 52 | 14 | 1.7 | 3.5 | 0.00 | 0.00 | 0.00 | 74 | 1014.1 |
| 20260502062222 | 52 | 80 | 1.7 | 2.6 | 0.00 | 0.00 | 0.00 | 74 | 1014.0 |
| 20260502061720 | 53 | 337 | 1.7 | 2.6 | 0.00 | 0.00 | 0.00 | 73 | 1014.0 |
| 20260502061217 | 53 | 338 | 1.7 | 3.5 | 0.00 | 0.00 | 0.00 | 73 | 1014.2 |
| 20260502060712 | 53 | 38 | 2.6 | 7.8 | 0.00 | 0.00 | 0.00 | 73 | 1014.1 |
| 20260502060209 | 53 | 285 | 0.9 | 4.3 | 0.00 | 0.00 | 0.00 | 74 | 1014.1 |
| 20260502055707 | 52 | 342 | 0.0 | 5.2 | 0.00 | 0.00 | 0.00 | 75 | 1014.6 |
| 20260502055204 | 52 | 31 | 0.9 | 2.6 | 0.00 | 0.00 | 0.00 | 78 | 1014.4 |
| 20260502054703 | 52 | 35 | 0.9 | 2.6 | 0.00 | 0.00 | 0.00 | 81 | 1014.2 |
| 20260502054200 | 52 | 31 | 0.9 | 3.5 | 0.00 | 0.00 | 0.00 | 80 | 1014.2 |
| 20260502053658 | 52 | 352 | 0.9 | 2.6 | 0.00 | 0.00 | 0.00 | 79 | 1014.5 |
| 20260502053154 | 52 | 37 | 1.7 | 1.7 | 0.00 | 0.00 | 0.00 | 80 | 1014.6 |
| 20260502052653 | 52 | 53 | 0.9 | 1.7 | 0.00 | 0.00 | 0.00 | 81 | 1014.5 |
| 20260502052151 | 51 | 87 | 2.6 | 2.6 | 0.00 | 0.00 | 0.00 | 82 | 1014.5 |
| 20260502051648 | 52 | 74 | 1.7 | 1.7 | 0.00 | 0.00 | 0.00 | 82 | 1014.3 |
| 20260502051146 | 52 | 106 | 0.9 | 1.7 | 0.00 | 0.00 | 0.00 | 82 | 1014.3 |
| 20260502050642 | 52 | 123 | 0.9 | 1.7 | 0.00 | 0.00 | 0.00 | 83 | 1014.4 |
| 20260502050139 | 52 | 124 | 0.9 | 1.7 | 0.00 | 0.00 | 0.00 | 84 | 1014.2 |
| 20260502045636 | 52 | 98 | 1.7 | 2.6 | 0.00 | 0.00 | 0.00 | 85 | 1014.3 |
| 20260502045133 | 52 | 101 | 2.6 | 2.6 | 0.00 | 0.00 | 0.00 | 85 | 1014.2 |
| 20260502044629 | 52 | 99 | 2.6 | 2.6 | 0.00 | 0.00 | 0.00 | 85 | 1014.3 |
| 20260502044126 | 52 | 97 | 2.6 | 2.6 | 0.00 | 0.00 | 0.00 | 85 | 1014.7 |
| 20260502043624 | 52 | 110 | 3.5 | 4.3 | 0.00 | 0.00 | 0.00 | 86 | 1014.4 |
| 20260502043121 | 53 | 116 | 1.7 | 3.5 | 0.00 | 0.00 | 0.00 | 84 | 1014.3 |
| 20260502042620 | 53 | 93 | 2.6 | 4.3 | 0.00 | 0.00 | 0.00 | 82 | 1014.3 |
| 20260502042118 | 53 | 105 | 3.5 | 3.5 | 0.00 | 0.00 | 0.00 | 82 | 1014.5 |
| 20260502041616 | 53 | 84 | 2.6 | 3.5 | 0.00 | 0.00 | 0.00 | 82 | 1014.5 |
| 20260502041113 | 53 | 68 | 1.7 | 3.5 | 0.00 | 0.00 | 0.00 | 83 | 1014.7 |
| 20260502040609 | 52 | 52 | 1.7 | 4.3 | 0.00 | 0.00 | 0.00 | 84 | 1014.7 |
| 20260502040107 | 53 | 66 | 1.7 | 2.6 | 0.00 | 0.00 | 0.00 | 83 | 1014.4 |
| 20260502035603 | 53 | 112 | 3.5 | 3.5 | 0.00 | 0.00 | 0.00 | 83 | 1014.5 |
| 20260502035100 | 53 | 35 | 1.7 | 3.5 | 0.00 | 0.00 | 0.00 | 82 | 1014.3 |
| 20260502034557 | 52 | 54 | 3.5 | 4.3 | 0.00 | 0.00 | 0.00 | 83 | 1014.2 |
| 20260502034056 | 52 | 89 | 0.9 | 3.5 | 0.00 | 0.00 | 0.00 | 83 | 1014.2 |
| 20260502033554 | 53 | 112 | 1.7 | 3.5 | 0.00 | 0.00 | 0.00 | 83 | 1014.2 |
| 20260502033051 | 53 | 93 | 3.5 | 3.5 | 0.00 | 0.00 | 0.00 | 83 | 1014.5 |
| 20260502032546 | 53 | 124 | 2.6 | 3.5 | 0.00 | 0.00 | 0.00 | 82 | 1014.3 |
| 20260502032043 | 53 | 88 | 2.6 | 3.5 | 0.00 | 0.00 | 0.00 | 82 | 1014.3 |
| 20260502031541 | 53 | 96 | 2.6 | 3.5 | 0.00 | 0.00 | 0.00 | 81 | 1014.3 |
| 20260502031039 | 54 | 116 | 3.5 | 3.5 | 0.00 | 0.00 | 0.00 | 80 | 1014.4 |
| 20260502030538 | 53 | 94 | 2.6 | 4.3 | 0.00 | 0.00 | 0.00 | 80 | 1014.4 |
| 20260502030035 | 54 | 93 | 3.5 | 3.5 | 0.00 | 0.00 | 0.00 | 80 | 1014.4 |
| 20260502025532 | 54 | 116 | 1.7 | 3.5 | 0.00 | 0.00 | 0.00 | 80 | 1014.1 |
| 20260502025030 | 54 | 113 | 2.6 | 3.5 | 0.00 | 0.00 | 0.00 | 80 | 1014.2 |
| 20260502024527 | 55 | 102 | 3.5 | 3.5 | 0.00 | 0.00 | 0.00 | 79 | 1014.3 |
| 20260502024026 | 55 | 129 | 2.6 | 3.5 | 0.00 | 0.00 | 0.00 | 77 | 1014.2 |
| 20260502023523 | 55 | 102 | 2.6 | 3.5 | 0.00 | 0.00 | 0.00 | 77 | 1014.1 |
| 20260502023020 | 55 | 116 | 2.6 | 2.6 | 0.00 | 0.00 | 0.00 | 75 | 1014.2 |
| 20260502022516 | 55 | 106 | 2.6 | 3.5 | 0.00 | 0.00 | 0.00 | 75 | 1014.3 |
| 20260502022014 | 55 | 116 | 1.7 | 2.6 | 0.00 | 0.00 | 0.00 | 75 | 1014.2 |
| 20260502021512 | 55 | 130 | 1.7 | 2.6 | 0.00 | 0.00 | 0.00 | 75 | 1014.0 |
| 20260502021008 | 55 | 145 | 1.7 | 2.6 | 0.00 | 0.00 | 0.00 | 74 | 1014.0 |
| 20260502020506 | 56 | 133 | 2.6 | 3.5 | 0.00 | 0.00 | 0.00 | 74 | 1014.1 |
| 20260502020003 | 56 | 106 | 2.6 | 4.3 | 0.00 | 0.00 | 0.00 | 74 | 1013.9 |
| 20260502015501 | 56 | 120 | 2.6 | 4.3 | 0.00 | 0.00 | 0.00 | 74 | 1013.8 |
| 20260502014956 | 56 | 111 | 2.6 | 4.3 | 0.00 | 0.00 | 0.00 | 74 | 1013.9 |
| 20260502014453 | 56 | 123 | 2.6 | 4.3 | 0.00 | 0.00 | 0.00 | 74 | 1013.7 |
| 20260502013950 | 56 | 120 | 3.5 | 4.3 | 0.00 | 0.00 | 0.00 | 74 | 1013.4 |
| 20260502013446 | 56 | 136 | 2.6 | 4.3 | 0.00 | 0.00 | 0.00 | 76 | 1013.4 |
| 20260502012942 | 56 | 109 | 3.5 | 5.2 | 0.00 | 0.00 | 0.00 | 74 | 1013.4 |
| 20260502012440 | 55 | 108 | 1.7 | 3.5 | 0.00 | 0.00 | 0.00 | 77 | 1013.4 |
| 20260502011938 | 55 | 120 | 3.5 | 4.3 | 0.00 | 0.00 | 0.00 | 77 | 1013.4 |
| 20260502011433 | 56 | 113 | 3.5 | 4.3 | 0.00 | 0.00 | 0.00 | 76 | 1013.6 |
| 20260502010931 | 56 | 109 | 3.5 | 4.3 | 0.00 | 0.00 | 0.00 | 75 | 1013.6 |
| 20260502010427 | 56 | 114 | 3.5 | 4.3 | 0.00 | 0.00 | 0.00 | 74 | 1013.7 |
| 20260502005923 | 56 | 115 | 4.3 | 4.3 | 0.00 | 0.00 | 0.00 | 74 | 1013.4 |
| 20260502005421 | 56 | 117 | 3.5 | 4.3 | 0.00 | 0.00 | 0.00 | 73 | 1013.3 |
| 20260502004920 | 56 | 117 | 3.5 | 3.5 | 0.00 | 0.00 | 0.00 | 74 | 1013.1 |
| 20260502004415 | 57 | 122 | 3.5 | 4.3 | 0.00 | 0.00 | 0.00 | 73 | 1013.0 |
| 20260502003912 | 57 | 122 | 3.5 | 4.3 | 0.00 | 0.00 | 0.00 | 71 | 1012.8 |
| 20260502003410 | 58 | 118 | 3.5 | 3.5 | 0.00 | 0.00 | 0.00 | 69 | 1012.7 |
| 20260502002905 | 58 | 112 | 2.6 | 3.5 | 0.00 | 0.00 | 0.00 | 69 | 1012.6 |
| 20260502002403 | 58 | 121 | 4.3 | 4.3 | 0.00 | 0.00 | 0.00 | 68 | 1012.6 |
| 20260502001900 | 58 | 125 | 2.6 | 3.5 | 0.00 | 0.00 | 0.00 | 67 | 1012.8 |
| 20260502001358 | 59 | 125 | 0.9 | 2.6 | 0.00 | 0.00 | 0.00 | 65 | 1012.7 |
| 20260502000855 | 59 | 130 | 1.7 | 3.5 | 0.00 | 0.00 | 0.00 | 63 | 1012.6 |
| 20260502000354 | 60 | 113 | 1.7 | 1.7 | 0.00 | 0.00 | 0.00 | 62 | 1012.4 |
| 20260501235849 | 60 | 141 | 1.7 | 2.6 | 0.00 | 0.00 | 0.00 | 61 | 1012.3 |
| 20260501235345 | 60 | 133 | 1.7 | 2.6 | 0.00 | 0.00 | 0.00 | 63 | 1012.6 |
| 20260501234840 | 61 | 142 | 1.7 | 2.6 | 0.00 | 0.00 | 0.00 | 61 | 1012.2 |
| 20260501234338 | 61 | 122 | 2.6 | 3.5 | 0.00 | 0.00 | 0.00 | 62 | 1012.3 |